This demonstration page uses our WeatherBlox Daily Observations layout. Learn more.

Left ArrowRight Arrow

Hourly Observations for October 3, 2015

Temp ( °F °C ) Dew Point ( °F °C ) Humidity (%) Winds ( mph kmh ) Pressure ( in mb ) Visibility ( mi km ) Precip ( " mm )
1:35 am 01:35 Cloudy with Light Rain 49 9.5 45 7.1 85 85 ESE 12 19 30.12 1020 10 16 N/A
1:55 am 01:55 Cloudy 49 9.3 46 7.5 89 89 ESE 13 20 30.09 1019 10 16 N/A
2:15 am 02:15 Cloudy 49 9.6 45 7.1 85 85 ESE 13 20 30.09 1019 10 16 N/A
2:35 am 02:35 Cloudy 50 9.8 44 6.9 82 82 SE 12 19 30.09 1019 10 16 N/A
2:55 am 02:55 Cloudy 49 9.7 44 6.7 82 82 SE 13 20 30.09 1019 10 16 N/A
3:15 am 03:15 Cloudy with Nearby Thunderstorms 49 9.6 44 6.6 82 82 ESE 15 24 30.09 1019 10 16 N/A
3:35 am 03:35 Cloudy 49 9.6 44 6.6 82 82 ESE 13 20 30.09 1019 10 16 N/A
4:15 am 04:15 Cloudy 49 9.7 44 6.4 80 80 SE 13 20 30.09 1019 10 16 N/A
4:55 am 04:55 Cloudy 49 9.6 43 6.2 80 80 SE 12 19 30.09 1019 10 16 N/A
5:15 am 05:15 Cloudy 49 9.5 43 6.2 80 80 ESE 9 15 30.12 1020 10 16 N/A
5:35 am 05:35 Cloudy 49 9.5 44 6.4 81 81 SE 10 17 30.12 1020 10 16 N/A
5:55 am 05:55 Cloudy with Rain 49 9.2 44 6.5 83 83 SE 7 11 30.12 1020 10 16 N/A
6:15 am 06:15 Cloudy with Light Rain 48 9 44 6.6 85 85 SE 8 13 30.12 1020 10 16 N/A
6:35 am 06:35 Cloudy 48 8.8 44 6.7 87 87 ESE 10 17 30.09 1019 10 16 N/A
6:55 am 06:55 Cloudy 48 8.7 44 6.7 87 87 ESE 9 15 30.09 1019 10 16 N/A
7:15 am 07:15 Cloudy with Light Rain 47 8.5 44 6.6 88 88 ESE 9 15 30.09 1019 10 16 N/A
7:35 am 07:35 Cloudy 47 8.5 44 6.8 89 89 ESE 8 13 30.09 1019 10 16 N/A
7:55 am 07:55 Cloudy with Drizzle 47 8.5 45 7 90 90 ESE 9 15 30.09 1019 10 16 N/A
8:15 am 08:15 Cloudy 47 8.5 45 7 90 90 SE 12 19 30.09 1019 10 16 N/A
8:35 am 08:35 Cloudy 47 8.5 45 7 90 90 SSE 7 11 30.12 1020 10 16 N/A
8:55 am 08:55 Cloudy with Drizzle 47 8.6 45 7.2 91 91 SSE 9 15 30.12 1020 10 16 N/A
9:15 am 09:15 Cloudy with Rain 47 8.6 45 7.2 91 91 SSE 7 11 30.12 1020 7 11 N/A
9:35 am 09:35 Cloudy with Light Rain 47 8.6 46 7.5 93 93 SE 8 13 30.12 1020 10 16 N/A
9:55 am 09:55 Cloudy 47 8.6 46 7.5 93 93 ESE 9 15 30.12 1020 10 16 N/A
10:15 am 10:15 Cloudy with Drizzle 47 8.5 46 7.5 94 94 ESE 8 13 30.12 1020 10 16 N/A
10:35 am 10:35 Cloudy 47 8.5 45 7.4 93 93 ESE 9 15 30.12 1020 10 16 N/A
10:55 am 10:55 Cloudy 48 8.8 46 7.8 94 94 ESE 10 17 30.09 1019 10 16 N/A
11:15 am 11:15 Cloudy 48 9 46 8 94 94 SE 9 15 30.09 1019 10 16 N/A
11:35 am 11:35 Cloudy 48 9 46 8 94 94 ESE 10 17 30.09 1019 10 16 N/A
11:55 am 11:55 Cloudy 48 9 46 8 94 94 SE 10 17 30.09 1019 10 16 N/A
12:15 pm 12:15 Cloudy 49 9.4 47 8.2 92 92 ESE 10 17 30.09 1019 10 16 N/A
12:35 pm 12:35 Cloudy 50 9.8 47 8.6 92 92 ESE 15 24 30.09 1019 10 16 N/A
12:55 pm 12:55 Cloudy 51 10.5 48 9 91 91 SE 13 20 30.03 1017 10 16 N/A
1:15 pm 13:15 Cloudy 51 10.7 48 9 89 89 SE 14 22 30.03 1017 10 16 N/A
1:35 pm 13:35 Cloudy 51 10.6 48 8.7 88 88 SE 12 19 30.03 1017 10 16 N/A
1:55 pm 13:55 Cloudy 51 10.7 48 8.7 88 88 SE 14 22 30.03 1017 10 16 N/A
2:15 pm 14:15 Cloudy 51 10.6 47 8.5 87 87 SE 12 19 30.03 1017 10 16 N/A
2:35 pm 14:35 Cloudy 51 10.6 47 8.3 86 86 SE 14 22 30.03 1017 10 16 N/A
2:55 pm 14:55 Cloudy 52 10.9 47 8.5 85 85 SE 9 15 30.03 1017 10 16 N/A
3:15 pm 15:15 Cloudy 52 10.9 47 8.5 85 85 ESE 9 15 30.03 1017 10 16 N/A
3:35 pm 15:35 Cloudy 52 11.2 48 8.8 85 85 E 12 19 30.03 1017 10 16 N/A
3:55 pm 15:55 Cloudy 53 11.7 48 9.1 84 84 ESE 13 20 30.03 1017 10 16 N/A
4:15 pm 16:15 Cloudy 54 12.3 48 8.9 80 80 ESE 13 20 30.03 1017 10 16 N/A
4:35 pm 16:35 Cloudy 54 12.1 47 8.5 79 79 ESE 10 17 30.03 1017 10 16 N/A
4:55 pm 16:55 Cloudy 54 12.1 47 8.2 77 77 SE 10 17 30.03 1017 10 16 N/A
5:15 pm 17:15 Cloudy 54 12.1 47 8.5 79 79 ESE 12 19 30.03 1017 10 16 N/A
5:35 pm 17:35 Cloudy 54 12.2 47 8.6 79 79 ESE 9 15 30.03 1017 10 16 N/A
5:55 pm 17:55 Cloudy 55 12.6 47 8.2 75 75 SE 9 15 30.03 1017 10 16 N/A
6:15 pm 18:15 Cloudy 55 12.5 47 8.1 75 75 SE 10 17 30.03 1017 10 16 N/A
6:35 pm 18:35 Cloudy 54 12.1 46 7.9 76 76 ESE 12 19 30.03 1017 10 16 N/A
6:55 pm 18:55 Cloudy 54 12 46 7.8 76 76 ESE 12 19 30.03 1017 10 16 N/A
7:15 pm 19:15 Cloudy 54 12 46 7.5 74 74 ESE 8 13 30.03 1017 10 16 N/A
7:35 pm 19:35 Cloudy 54 12 46 7.6 75 75 E 8 13 30.03 1017 10 16 N/A
7:55 pm 19:55 Cloudy 53 11.6 46 7.8 78 78 E 6 9 30.03 1017 10 16 N/A
8:15 pm 20:15 Cloudy 53 11.5 46 7.9 79 79 E 6 9 30.06 1018 10 16 N/A
8:35 pm 20:35 Cloudy 53 11.6 46 8 79 79 E 7 11 30.06 1018 10 16 N/A
8:55 pm 20:55 Cloudy 53 11.5 46 8 79 79 ESE 6 9 30.06 1018 10 16 N/A
9:15 pm 21:15 Cloudy 53 11.5 46 8 79 79 E 6 9 30.06 1018 10 16 N/A
9:35 pm 21:35 Cloudy 53 11.5 47 8.1 80 80 E 6 9 30.06 1018 10 16 N/A
9:55 pm 21:55 Cloudy 53 11.5 47 8.5 82 82 E 5 7 30.06 1018 10 16 N/A
10:15 pm 22:15 Cloudy 53 11.5 48 8.7 83 83 E 7 11 30.09 1019 10 16 N/A
10:35 pm 22:35 Cloudy with Drizzle 53 11.5 47 8.5 82 82 E 7 11 30.09 1019 10 16 N/A
10:55 pm 22:55 Cloudy 53 11.5 47 8.5 82 82 E 6 9 30.09 1019 10 16 N/A
11:15 pm 23:15 Cloudy with Light Rain 53 11.7 46 7.9 78 78 ESE 5 7 30.09 1019 10 16 N/A
11:35 pm 23:35 Cloudy 53 11.5 46 7.8 78 78 E 8 13 30.09 1019 10 16 N/A
11:55 pm 23:55 Cloudy with Rain 52 11 47 8.4 84 84 Calm 30.09 1019 7 11 N/A

Powered by AerisWeather